| time (UTC) | temp C | wind direction | speed KPH | gust KPH | rain 1hr cm | rain 24hr cm | rain mn cm | humidity % | barometer mb |
| 20260503014553 | 14 | 9 | 4.8 | 12.9 | 0.00 | 0.00 | 0.00 | 84 | 1012.0 |
| 20260503013004 | 14 | 9 | 4.8 | 12.9 | 0.00 | 0.00 | 0.00 | 84 | 1012.0 |
| 20260503004528 | 15 | 9 | 6.4 | 11.3 | 0.00 | 0.00 | 0.00 | 82 | 1012.1 |
| 20260503003057 | 15 | 9 | 8.0 | 16.1 | 0.00 | 0.00 | 0.00 | 81 | 1012.1 |
| 20260502224506 | 15 | 9 | 8.0 | 16.1 | 0.00 | 0.00 | 0.00 | 82 | 1013.0 |
| 20260502223040 | 15 | 9 | 6.4 | 16.1 | 0.00 | 0.00 | 0.00 | 83 | 1013.2 |
| 20260502221601 | 15 | 9 | 8.0 | 14.5 | 0.00 | 0.00 | 0.00 | 80 | 1013.4 |
| 20260502220031 | 15 | 9 | 8.0 | 14.5 | 0.00 | 0.00 | 0.00 | 80 | 1013.5 |
| 20260502214503 | 15 | 9 | 8.0 | 16.1 | 0.00 | 0.00 | 0.00 | 81 | 1013.9 |
| 20260502213033 | 15 | 9 | 6.4 | 16.1 | 0.00 | 0.00 | 0.00 | 81 | 1014.1 |
| 20260502211636 | 15 | 9 | 6.4 | 12.9 | 0.00 | 0.00 | 0.00 | 79 | 1014.1 |
| 20260502210034 | 15 | 9 | 8.0 | 16.1 | 0.00 | 0.00 | 0.00 | 78 | 1014.3 |
| 20260502204600 | 16 | 9 | 6.4 | 12.9 | 0.00 | 0.00 | 0.00 | 77 | 1014.3 |
| 20260502203030 | 16 | 9 | 9.7 | 14.5 | 0.00 | 0.00 | 0.00 | 76 | 1014.4 |
| 20260502201556 | 15 | 9 | 3.2 | 9.7 | 0.00 | 0.00 | 0.00 | 77 | 1014.4 |
| 20260502200015 | 14 | 9 | 0.0 | 11.3 | 0.00 | 0.00 | 0.00 | 83 | 1014.5 |
| 20260502194551 | 14 | 9 | 4.8 | 9.7 | 0.00 | 0.00 | 0.00 | 83 | 1015.0 |
| 20260502193013 | 13 | 9 | 3.2 | 9.7 | 0.00 | 0.00 | 0.00 | 85 | 1015.1 |
| 20260502191533 | 13 | 9 | 3.2 | 9.7 | 0.00 | 0.00 | 0.00 | 87 | 1015.3 |
| 20260502190004 | 13 | 9 | 3.2 | 8.0 | 0.00 | 0.00 | 0.00 | 89 | 1015.3 |
| 20260502184549 | 13 | 9 | 1.6 | 9.7 | 0.00 | 0.00 | 0.00 | 90 | 1015.6 |
| 20260502183005 | 12 | 9 | 6.4 | 12.9 | 0.00 | 0.00 | 0.00 | 90 | 1015.5 |
| 20260502181537 | 12 | 9 | 6.4 | 12.9 | 0.00 | 0.00 | 0.00 | 90 | 1015.5 |